CAPE
0 0 0 0 32 207 103 150 308 383 362 185 149 217 94 127 125 87 113 500 806 1186 1880 1598 1105 183 0 158 306 473 686 798 792 457 177 121 206 314 246 192 446 844 980 941 1020 876 759 776 653
0 0 0 0 150 7 23 71 344 395 426 252 227 248 150 155 119 6 235 240 527 1090 1871 1630 1196 593 11 12 158 245 302 427 342 208 178 146 128 139 82 133 332 753 1229 1284 1234 1145 948 782 760
0 0 0 0 19 16 16 223 326 243 292 359 301 213 143 127 50 159 288 421 644 1012 1574 2044 1163 992 187 47 52 196 231 179 183 234 275 226 124 88 57 137 273 507 796 1133 1325 1326 1238 997 746
0 0 0 24 17 0 47 243 295 327 351 390 403 243 215 281 139 662 891 643 975 1336 1343 1483 1268 1147 635 233 150 115 189 294 296 286 285 264 150 75 111 82 180 325 576 750 833 919 975 913 725
0 0 0 11 0 0 12 345 345 460 571 637 637 269 153 294 470 367 452 765 1280 1353 1469 1797 1618 1451 1121 508 484 339 229 204 347 382 311 292 287 254 275 272 219 267 413 611 728 563 525 586 521
0 0 0 0 0 0 2 295 414 542 527 909 1007 374 42 906 470 117 88 243 978 911 1527 1773 1796 1366 1296 1189 817 729 505 274 166 229 226 251 202 156 162 247 338 467 511 518 608 563 401 318 380
0 0 0 0 0 0 0 29 199 197 923 1056 779 403 477 767 564 167 115 247 247 911 905 1557 1889 1925 1519 1130 870 666 648 404 443 445 391 346 287 180 139 173 276 529 685 690 758 728 561 450 354
0 0 0 0 0 0 0 0 0 665 276 313 0 0 740 1303 658 354 156 286 448 780 1077 1504 1919 1767 1688 1498 1055 901 867 818 690 478 465 594 628 536 388 303 282 428 556 650 688 712 698 603 501
0 0 0 0 0 0 0 0 0 0 1 0 0 0 0 1265 671 359 263 225 702 773 1001 1107 1606 1742 1553 1505 1359 1073 988 995 837 759 642 536 640 600 537 526 384 383 413 562 627 625 555 456 428
0 0 0 0 0 0 0 0 0 0 0 0 0 14 328 1337 909 533 467 258 606 526 576 1015 773 670 1242 1287 1151 355 93 519 1353 1285 1113 1021 966 965 714 512 372 417 479 473 473 502 540 519 187
0 0 0 0 0 0 0 0 0 0 0 0 0 0 616 1313 1025 808 639 372 726 455 462 787 757 456 737 1245 811 138 0 181 1067 1463 863 1124 1462 1442 1207 1042 926 889 756 664 602 615 565 560 594
0 0 0 0 0 0 0 0 0 0 0 0 0 218 647 1170 1118 922 838 661 852 352 653 745 1036 708 1118 1372 355 8 0 0 0 0 9 413 1238 1540 1608 1602 1521 1351 1013 960 1026 762 850 1037 1102
0 0 0 0 0 0 0 0 0 0 0 0 1 256 570 1141 1243 1141 1231 1255 1256 579 592 1034 775 724 676 120 0 0 0 0 0 0 0 0 20 39 156 345 620 978 1248 1253 1207 1214 1136 1107 1139
0 0 0 0 0 0 0 0 0 0 0 0 6 229 938 1322 1435 1348 1193 1250 1371 268 499 112 4 0 0 0 0 0 0 0 0 0 0 0 0 0 0 0 91 434 702 874 1154 1174 1281 1264 1164
0 0 0 0 0 0 0 0 0 0 0 0 0 0 0 46 1472 1446 1216 860 812 87 35 8 0 0 0 0 0 0 0 0 0 0 0 0 0 0 0 0 0 0 133 649 867 1046 1306 1326 1237
0 0 0 0 0 0 0 0 0 0 0 0 0 0 0 0 8 1052 235 121 37 5 0 0 0 0 0 0 0 0 0 0 0 0 0 0 0 0 0 0 0 0 183 216 554 883 1119 1254 1255
0 0 0 0 0 0 0 0 0 0 0 0 0 0 0 0 0 0 0 2 0 0 0 0 0 0 0 0 0 0 0 0 0 0 0 0 0 0 0 0 0 0 35 198 249 396 803 1006 1068
0 0 0 0 0 0 0 0 0 0 0 0 0 0 0 0 0 0 0 0 0 0 0 0 0 0 0 0 0 0 0 0 0 0 0 0 0 0 0 0 0 0 0 7 53 335 615 763 879
0 0 0 0 0 0 0 0 0 0 0 0 0 0 0 0 0 0 0 0 0 0 0 0 0 0 0 0 0 0 0 0 0 0 0 0 0 0 0 0 0 0 0 0 0 21 273 491 714
0 0 0 0 0 0 0 0 0 0 0 0 0 0 0 0 0 0 0 0 0 0 0 0 0 0 0 0 0 0 0 0 0 0 0 0 0 0 0 0 0 0 0 0 0 0 1 96 526
0 0 0 0 0 0 0 0 0 0 0 0 0 0 0 0 0 0 0 0 3 13 11 1 0 0 0 0 0 0 0 0 0 0 0 0 0 0 0 0 0 0 0 0 0 0 0 0 45
0 0 0 0 0 0 0 0 0 0 0 0 0 0 0 0 0 0 0 0 0 0 0 1 8 25 74 55 6 6 0 0 0 0 0 0 0 0 0 0 0 0 0 0 0 0 0 0 0
0 0 0 0 0 0 0 0 0 0 0 0 0 0 0 0 0 0 0 0 0 0 0 0 0 0 0 0 0 0 0 0 0 0 0 0 0 0 0 0 0 0 0 0 0 0 0 0 0
0 0 0 0 0 0 0 0 0 0 0 0 0 0 0 0 0 0 0 0 0 0 0 0 0 0 0 0 0 0 0 0 0 0 0 0 0 0 0 0 0 0 0 0 0 0 0 0 0
0 0 0 0 0 0 0 0 0 0 0 0 0 0 0 0 0 0 0 0 0 0 0 0 0 0 0 0 0 0 0 0 0 0 0 0 0 0 0 0 0 0 0 0 0 0 0 0 0
0 0 0 0 0 0 0 0 0 0 0 0 0 0 0 0 0 0 0 0 0 0 0 0 0 0 0 0 0 0 0 0 0 0 0 0 0 0 0 0 0 0 0 0 0 0 0 0 0
0 0 0 0 0 0 0 0 0 0 0 0 0 0 0 0 0 0 0 0 0 0 0 0 0 0 0 0 0 0 0 0 0 0 0 0 0 0 0 0 0 0 0 0 0 0 0 0 0
0 0 0 0 0 0 0 0 0 0 0 0 0 0 0 0 0 0 0 0 0 0 0 0 0 0 0 0 0 0 0 0 0 0 0 0 0 0 0 0 0 0 0 0 0 0 0 0 0
0 0 0 0 0 0 0 0 0 0 0 2 3 0 0 0 0 0 0 0 0 0 0 0 0 0 0 0 0 0 0 0 0 0 0 0 0 0 0 0 0 0 0 0 0 0 0 0 0
0 0 0 0 0 0 0 0 0 1 7 0 0 0 0 0 0 0 0 0 0 0 0 0 0 0 0 1 0 0 0 0 1 3 2 1 1 4 2 0 0 0 0 0 0 0 0 0 0
CIN
-0 -0 -0 -0 -43 -34 -49 -58 -139 -105 -148 -239 -247 -214 -251 -211 -131 -97 -161 -172 -148 -94 -26 -83 -123 -231 -0 -261 -217 -178 -150 -142 -152 -185 -236 -248 -216 -178 -178 -187 -134 -77 -64 -68 -49 -46 -45 -37 -35
-0 -0 -0 -0 -9 -23 -17 -115 -61 -104 -147 -222 -221 -210 -240 -186 -243 -137 -156 -185 -177 -135 -37 -92 -144 -191 -434 -446 -259 -213 -200 -172 -187 -210 -217 -222 -235 -213 -217 -175 -143 -85 -34 -27 -27 -24 -26 -26 -23
-0 -0 -0 -0 -53 -52 -44 -75 -95 -175 -218 -174 -186 -245 -231 -189 -323 -210 -172 -163 -133 -117 -70 -39 -158 -185 -343 -461 -354 -237 -206 -220 -204 -205 -198 -207 -225 -221 -219 -167 -135 -102 -66 -31 -11 -7 -3 -11 -24
-0 -0 -0 -38 -36 -0 -50 -74 -122 -144 -170 -183 -179 -151 -241 -260 -286 -192 -143 -154 -103 -73 -64 -111 -117 -153 -233 -306 -305 -296 -204 -176 -177 -176 -177 -178 -201 -207 -181 -179 -135 -116 -78 -58 -42 -31 -19 -17 -29
-0 -0 -6 -51 -0 -0 -61 -94 -101 -75 -96 -98 -140 -99 -136 -227 -288 -327 -242 -174 -84 -58 -41 -40 -88 -85 -171 -273 -240 -254 -230 -225 -178 -144 -145 -144 -144 -150 -138 -131 -128 -108 -84 -66 -53 -62 -66 -55 -47
-0 -0 -0 -0 -0 -0 -31 -128 -115 -89 -101 -86 -82 -84 -55 -175 -269 -380 -381 -266 -125 -123 -74 -69 -61 -141 -157 -119 -177 -158 -173 -200 -233 -182 -185 -156 -144 -150 -141 -115 -94 -78 -70 -67 -61 -67 -80 -83 -69
-0 -0 -0 -0 -0 -0 -0 -152 -114 -92 -56 -45 -98 -54 -95 -121 -276 -401 -361 -269 -248 -157 -142 -81 -39 -102 -130 -173 -171 -164 -147 -195 -167 -163 -159 -155 -160 -169 -158 -140 -109 -68 -51 -44 -35 -37 -53 -59 -65
-0 -0 -0 -0 -0 -0 -0 -0 -0 -50 -79 -136 -0 -0 -13 -82 -263 -332 -350 -272 -241 -195 -143 -104 -83 -112 -126 -110 -147 -154 -141 -138 -133 -166 -166 -140 -132 -127 -135 -142 -123 -90 -65 -44 -29 -31 -32 -32 -40
-0 -0 -0 -0 -0 -0 -0 -0 -0 -0 -44 -0 -0 -0 -0 -157 -266 -300 -303 -272 -201 -228 -242 -228 -153 -125 -149 -137 -146 -152 -153 -134 -149 -152 -164 -181 -131 -128 -135 -115 -139 -128 -105 -72 -51 -37 -31 -39 -40
-0 -0 -0 -0 -0 -0 -0 -0 -0 -0 -0 -0 -0 -129 -153 -142 -156 -192 -226 -192 -216 -224 -254 -240 -241 -241 -171 -153 -157 -237 -270 -173 -121 -126 -145 -139 -139 -125 -126 -149 -177 -158 -133 -118 -90 -64 -41 -26 -17
-0 -0 -0 -0 -0 -0 -0 -0 -0 -0 -0 -0 -0 -0 -77 -80 -93 -96 -122 -185 -157 -225 -247 -203 -207 -250 -185 -149 -215 -273 -0 -293 -189 -136 -179 -147 -109 -103 -111 -109 -105 -99 -102 -98 -88 -64 -41 -20 -7
-0 -0 -0 -0 -0 -0 -0 -0 -0 -0 -0 -0 -0 -111 -71 -49 -56 -61 -73 -101 -142 -165 -168 -212 -218 -246 -197 -190 -249 -317 -0 -0 -0 -0 -378 -212 -109 -84 -72 -67 -69 -78 -86 -87 -78 -71 -52 -29 -16
-0 -0 -0 -0 -0 -0 -0 -0 -0 -0 -0 -0 -5 -135 -68 -54 -51 -95 -138 -168 -178 -202 -258 -228 -285 -284 -300 -354 -0 -0 -0 -0 -0 -0 -0 -0 -177 -161 -221 -155 -106 -83 -59 -60 -59 -56 -53 -38 -26
-0 -0 -0 -0 -0 -0 -0 -0 -0 -0 -0 -0 -98 -203 -132 -117 -86 -96 -137 -137 -191 -365 -322 -461 -158 -0 -0 -0 -0 -0 -0 -0 -0 -0 -0 -0 -0 -0 -0 -0 -166 -102 -106 -85 -71 -54 -45 -44 -36
-0 -0 -0 -0 -0 -0 -0 -0 -0 -0 -0 -0 -0 -0 -0 -10 -129 -131 -157 -232 -292 -494 -386 -589 -0 -0 -0 -0 -0 -0 -0 -0 -0 -0 -0 -0 -0 -0 -0 -0 -0 -0 -138 -85 -72 -70 -51 -47 -41
-0 -0 -0 -0 -0 -0 -0 -0 -0 -0 -0 -0 -0 -0 -0 -0 -25 -147 -317 -444 -570 -542 -0 -0 -0 -0 -0 -0 -0 -0 -0 -0 -0 -0 -0 -0 -0 -0 -0 -0 -0 -0 -96 -122 -74 -46 -34 -31 -25
-0 -0 -0 -0 -0 -0 -0 -0 -0 -0 -0 -0 -0 -0 -0 -0 -0 -0 -0 -298 -0 -0 -0 -0 -0 -0 -0 -0 -0 -0 -0 -0 -0 -0 -0 -0 -0 -0 -0 -0 -0 -0 -222 -78 -90 -74 -46 -29 -22
-0 -0 -0 -0 -0 -0 -0 -0 -0 -0 -0 -0 -0 -0 -0 -0 -0 -0 -0 -0 -0 -0 -0 -0 -0 -0 -0 -0 -0 -0 -0 -0 -0 -0 -0 -0 -0 -0 -0 -0 -0 -0 -0 -142 -194 -56 -39 -38 -27
-0 -0 -0 -0 -0 -0 -0 -0 -0 -0 -0 -0 -0 -0 -0 -0 -0 -0 -0 -0 -0 -0 -0 -0 -0 -0 -0 -0 -0 -0 -0 -0 -0 -0 -0 -0 -0 -0 -0 -0 -0 -0 -0 -0 -0 -210 -45 -39 -17
-0 -0 -0 -0 -0 -0 -0 -0 -0 -0 -0 -0 -0 -0 -0 -0 -0 -0 -0 -0 -0 -0 -0 -0 -0 -0 -0 -0 -0 -0 -0 -0 -0 -0 -0 -0 -0 -0 -0 -0 -0 -0 -0 -0 -0 -0 -20 -93 -18
-0 -0 -0 -0 -0 -0 -0 -0 -0 -0 -0 -0 -0 -0 -0 -0 -0 -0 -0 -0 -299 -275 -137 -126 -0 -0 -0 -0 -0 -0 -0 -0 -0 -0 -0 -0 -0 -0 -0 -0 -0 -0 -0 -0 -0 -0 -0 -0 -111
-0 -0 -0 -0 -0 -0 -0 -0 -0 -0 -0 -0 -0 -0 -0 -0 -0 -0 -0 -0 -0 -0 -0 -74 -343 -256 -188 -196 -225 -243 -30 -0 -0 -0 -0 -0 -0 -0 -0 -0 -0 -0 -0 -0 -0 -0 -0 -0 -0
-0 -0 -0 -0 -0 -0 -0 -0 -0 -0 -0 -0 -0 -0 -0 -0 -0 -0 -0 -0 -0 -0 -0 -0 -0 -0 -0 -0 -0 -0 -0 -0 -0 -0 -0 -0 -0 -0 -0 -0 -0 -0 -0 -0 -0 -0 -0 -0 -0
-0 -0 -0 -0 -0 -0 -0 -0 -0 -0 -0 -0 -0 -0 -0 -0 -0 -0 -0 -0 -0 -0 -0 -0 -0 -0 -0 -0 -0 -0 -0 -0 -0 -0 -0 -0 -0 -0 -0 -0 -0 -0 -0 -0 -0 -0 -0 -0 -0
-0 -0 -0 -0 -0 -0 -0 -0 -0 -0 -0 -0 -0 -0 -0 -0 -0 -0 -0 -0 -0 -0 -0 -0 -0 -0 -0 -0 -0 -0 -0 -0 -0 -0 -0 -0 -0 -0 -0 -0 -0 -0 -0 -0 -0 -0 -0 -0 -0
-0 -0 -0 -0 -0 -0 -0 -0 -0 -0 -0 -0 -0 -0 -0 -0 -0 -0 -0 -0 -0 -0 -0 -0 -0 -0 -0 -0 -0 -0 -0 -0 -0 -0 -0 -0 -0 -0 -0 -0 -0 -0 -0 -0 -0 -0 -0 -0 -0
-0 -0 -0 -0 -0 -0 -0 -0 -0 -0 -0 -0 -0 -0 -0 -0 -0 -0 -0 -0 -0 -0 -0 -0 -0 -0 -0 -0 -0 -0 -0 -0 -0 -0 -0 -0 -0 -0 -0 -0 -0 -0 -0 -0 -0 -0 -0 -0 -0
-0 -0 -0 -0 -0 -0 -0 -0 -0 -0 -0 -0 -0 -0 -0 -0 -0 -0 -0 -0 -0 -0 -0 -0 -0 -0 -0 -0 -0 -0 -0 -0 -0 -0 -0 -0 -0 -0 -0 -0 -0 -0 -0 -0 -0 -0 -0 -0 -0
-0 -0 -0 -0 -0 -0 -0 -0 -0 -0 -0 -38 -43 -0 -0 -0 -0 -0 -0 -0 -0 -0 -0 -0 -0 -0 -0 -0 -0 -0 -0 -0 -0 -0 -0 -0 -0 -0 -0 -0 -0 -0 -0 -0 -0 -0 -0 -0 -0
-0 -0 -0 -0 -0 -0 -0 -0 -0 -8 -46 -11 -2 -0 -0 -0 -0 -0 -0 -0 -0 -0 -0 -0 -0 -0 -0 -0 -0 -0 -0 -0 -1 -0 -0 -0 -0 -0 -2 -0 -0 -0 -0 -0 -0 -0 -0 -0 -0
Wind_Speed
16 14 12 14 15 14 15 16 16 16 16 16 17 18 19 19 17 19 15 15 10 6 5 5 7 7 7 4 4 5 5 6 10 13 14 14 14 14 15 16 16 17 18 19 19 19 20 20 20
14 13 13 15 13 13 16 15 15 15 15 16 16 19 18 18 17 18 19 17 10 6 6 8 7 6 6 5 4 3 4 5 7 9 10 10 11 12 12 12 13 14 15 16 17 17 18 18 18
13 14 15 15 13 13 14 13 14 14 14 15 16 18 18 17 16 19 17 19 20 10 6 7 8 8 6 5 4 4 3 4 4 6 8 10 9 10 10 11 11 12 13 13 14 15 15 16 16
13 14 15 12 10 12 14 12 11 12 14 14 15 18 16 15 16 15 16 13 18 7 8 10 8 6 6 4 4 5 5 4 4 5 6 7 8 9 9 10 10 11 12 12 13 13 14 14 14
14 15 15 11 12 13 14 13 10 12 14 14 14 16 14 14 14 14 13 14 14 11 10 7 7 6 6 6 7 7 6 6 6 6 7 7 7 8 9 10 10 10 11 11 11 12 13 13 14
14 14 10 12 12 13 14 12 12 14 16 12 14 14 13 14 13 14 12 11 12 10 8 7 7 5 7 6 7 7 8 8 8 8 8 10 10 10 10 11 12 11 10 10 11 10 11 13 13
12 12 11 11 11 13 13 11 10 13 13 13 13 13 14 11 11 9 12 10 10 8 9 9 9 7 6 7 8 9 10 10 10 10 11 11 13 15 16 16 16 15 14 13 14 15 14 14 13
16 15 13 12 9 12 13 13 13 11 13 12 15 17 15 13 9 10 12 9 9 9 10 9 9 10 9 9 9 10 12 12 13 13 13 15 16 15 16 17 16 17 17 16 15 15 16 18 19
13 13 14 14 12 10 13 13 13 14 12 14 15 18 17 11 12 11 11 6 8 10 11 11 10 10 9 9 10 11 12 13 12 13 13 14 15 16 17 17 18 18 19 19 20 20 20 20 20
14 15 14 12 10 10 12 14 12 12 11 14 16 16 14 11 14 12 10 6 9 12 13 12 10 10 10 10 10 12 13 14 14 15 16 17 17 17 17 18 18 19 20 21 22 23 24 23 22
15 15 14 13 13 12 13 14 13 12 9 11 11 11 12 10 11 11 11 9 8 8 11 10 11 9 10 10 12 14 14 16 17 18 21 22 21 21 20 21 21 22 21 22 22 23 23 22 22
14 14 13 13 15 13 12 14 15 16 18 20 11 13 11 12 11 10 9 10 9 9 9 9 8 7 9 11 12 13 15 17 18 20 21 23 25 24 24 24 23 23 23 24 24 23 24 23 23
14 14 15 14 14 14 15 16 15 19 21 18 13 11 10 8 7 6 9 16 11 10 13 11 10 10 9 10 12 14 16 17 18 21 23 24 25 26 27 27 27 27 26 26 26 26 25 26 25
14 14 15 15 13 13 14 17 15 22 23 18 18 20 19 15 7 7 6 8 14 16 16 14 13 13 13 13 12 14 15 17 19 21 23 24 24 25 26 26 27 28 28 28 28 27 28 27 27
13 16 18 18 15 13 11 18 21 25 23 20 22 24 27 19 13 11 18 21 19 16 14 14 14 13 12 13 14 15 16 17 19 21 23 25 25 25 26 26 27 28 29 29 29 29 28 28 27
12 14 13 19 17 16 11 15 22 26 25 24 25 26 28 31 25 20 18 19 17 15 14 14 13 13 14 15 15 16 17 18 20 21 23 25 25 26 26 26 27 29 29 29 31 30 30 29 29
14 13 14 16 20 17 17 15 23 24 24 25 27 28 29 29 26 25 19 18 18 16 14 14 15 15 15 15 16 17 19 20 20 22 23 23 24 25 25 26 27 28 28 29 29 29 29 30 29
14 14 15 16 21 18 18 17 22 24 24 26 27 28 29 28 28 24 20 17 14 13 13 15 16 17 18 18 18 19 20 21 21 23 23 23 23 24 25 26 27 28 28 29 30 30 29 29 31
15 15 15 14 18 16 18 19 23 24 25 26 27 27 28 28 26 24 20 17 14 14 14 15 16 18 19 19 21 21 22 22 23 24 25 24 24 25 26 26 27 28 28 29 30 31 30 30 28
16 16 19 16 18 17 17 20 22 25 25 25 25 26 27 27 27 26 23 18 15 14 14 15 16 18 18 18 19 19 21 22 25 26 26 26 27 27 26 26 27 27 28 29 30 30 30 29 28
19 18 19 19 21 20 17 21 21 22 22 23 24 24 26 27 27 26 24 22 20 17 16 16 16 18 19 20 21 23 25 25 27 29 32 31 30 28 27 27 26 27 28 29 29 30 29 31 30
20 20 19 20 21 24 19 28 20 19 21 22 23 25 26 27 26 26 26 25 24 22 22 23 25 26 27 27 29 31 33 35 33 34 34 33 32 31 28 28 27 27 28 28 29 29 29 29 33
20 21 20 21 19 21 21 23 21 17 21 22 23 25 27 26 27 27 27 27 27 27 28 28 30 31 31 32 32 35 37 39 40 40 40 37 35 33 30 28 27 28 29 28 28 29 29 29 30
21 21 22 21 20 23 22 25 24 20 21 21 22 24 25 26 27 27 27 28 29 29 30 32 33 34 34 34 34 37 40 42 44 44 46 44 40 36 33 31 29 28 29 29 30 31 30 31 30
25 26 27 24 26 28 22 29 27 19 21 22 22 23 24 26 27 29 30 32 33 34 35 36 36 38 37 38 39 40 42 43 44 44 44 45 42 40 36 30 30 29 29 30 31 33 33 32 32
24 25 26 30 31 32 26 27 25 20 20 21 21 22 24 28 30 31 32 33 37 40 40 42 41 41 38 38 40 42 44 45 45 44 45 45 43 41 34 32 31 30 31 33 32 35 36 35 35
23 25 22 25 27 31 27 25 20 18 22 22 25 25 29 31 33 34 34 36 38 40 40 42 41 42 41 41 43 46 47 48 48 44 43 43 42 41 36 33 33 32 33 34 34 36 39 39 38
21 19 25 28 33 37 30 29 29 22 23 25 27 30 32 34 36 37 38 38 39 40 41 42 42 44 43 43 47 48 50 51 50 46 47 46 42 36 34 33 33 34 35 36 36 37 38 39 41
21 23 24 24 25 32 36 32 24 25 22 29 33 32 35 38 39 40 41 40 42 42 45 46 45 45 45 44 48 51 53 54 49 50 51 50 47 41 36 35 35 37 39 39 39 39 39 41 42
19 21 24 29 30 26 29 35 23 22 24 31 32 34 37 37 40 41 41 43 45 47 48 48 47 43 42 44 48 50 50 47 47 47 48 48 46 43 43 42 41 42 44 43 43 43 43 44 45
Wind_Direction
339 355 359 352 347 358 343 352 4 18 16 23 37 20 11 27 18 3 71 88 57 17 3 9 23 25 32 10 26 53 62 64 74 77 79 77 71 67 64 66 62 58 59 61 61 58 58 59 59
343 352 346 339 344 331 341 353 5 14 18 34 20 10 14 15 43 50 80 105 73 23 293 54 45 28 30 17 352 28 49 55 61 64 61 59 62 57 54 46 42 44 42 48 52 53 53 52 54
347 334 334 334 332 325 334 345 353 6 32 24 17 21 17 21 46 68 75 97 109 254 327 31 50 49 34 26 350 303 345 35 35 44 59 68 53 45 43 36 32 29 30 30 34 39 44 46 44
349 349 343 336 338 346 349 10 17 11 14 12 13 6 19 37 52 30 46 59 101 19 297 54 31 18 28 358 353 12 329 336 349 15 23 42 52 46 29 24 16 14 16 18 16 16 20 24 27
346 337 324 336 334 333 342 346 21 14 8 8 30 8 22 40 30 21 13 67 81 65 278 315 343 328 22 13 29 17 11 17 349 349 354 353 5 6 5 7 13 7 8 17 16 10 8 7 5
331 338 338 321 329 337 346 357 342 342 338 13 17 36 44 41 38 38 17 7 53 35 320 323 298 336 3 353 355 345 345 338 339 333 334 332 339 350 354 349 350 358 3 4 7 12 13 359 357
53 35 358 349 343 338 353 24 9 348 353 355 18 11 16 41 53 4 353 342 17 6 308 296 312 318 319 310 318 323 325 327 323 325 324 329 324 317 316 319 323 330 338 341 340 339 342 347 351
89 83 41 6 18 354 28 20 33 37 3 19 1 351 350 5 56 339 317 343 349 29 19 16 341 295 310 298 310 320 315 315 312 312 313 311 313 319 319 320 323 321 324 328 333 335 334 330 325
38 55 64 76 78 36 36 37 39 354 3 343 345 347 317 28 69 41 305 316 332 350 347 4 331 333 334 334 313 310 318 329 329 328 328 328 325 321 319 318 318 319 318 319 320 320 321 322 321
27 52 54 27 8 17 355 6 31 31 40 344 340 332 343 62 88 61 11 327 319 331 337 332 339 331 331 336 348 328 332 321 321 321 320 320 319 321 321 319 318 317 316 315 314 314 314 315 317
26 49 45 20 11 4 347 3 16 32 43 29 40 34 29 66 78 71 68 24 347 1 350 345 329 324 322 326 325 325 328 330 319 314 309 309 310 309 312 313 313 313 314 313 314 315 315 315 317
43 28 22 24 24 22 22 21 17 358 325 258 73 11 51 91 91 82 36 27 2 5 9 7 357 354 332 325 328 329 328 329 328 322 323 319 308 306 305 307 309 309 309 308 309 312 312 312 314
19 10 3 7 7 18 11 355 6 338 303 300 346 20 54 80 92 64 357 311 338 345 334 355 351 338 333 330 328 331 332 334 334 330 326 323 316 311 308 306 306 305 305 305 305 306 307 307 309
1 12 1 351 0 358 15 352 358 320 298 322 320 309 319 336 359 349 350 344 324 319 326 334 339 338 339 339 342 342 342 340 337 335 333 333 327 320 315 313 309 307 306 304 303 303 304 304 305
49 32 16 355 359 15 36 347 338 317 335 334 323 315 306 319 322 317 312 311 314 321 327 328 329 332 335 341 340 340 341 343 343 340 337 336 333 327 322 317 314 311 309 306 304 302 302 301 303
13 358 3 344 347 359 13 349 344 335 341 340 336 328 318 311 306 306 308 310 314 318 318 324 327 325 325 327 331 334 338 341 343 342 341 340 339 336 330 324 320 317 314 310 306 303 301 299 300
357 10 7 352 339 346 349 354 345 349 349 345 340 336 332 326 321 313 309 305 307 309 310 314 317 318 319 321 324 329 332 334 337 339 339 340 342 343 340 335 330 324 320 317 314 308 303 301 300
355 356 354 355 339 1 2 359 348 349 352 347 342 342 341 338 332 325 322 315 312 310 307 309 310 311 313 316 319 322 324 328 331 334 337 339 339 340 338 337 335 332 325 321 318 314 309 304 301
353 357 359 5 359 3 1 356 352 353 353 353 353 350 348 349 348 345 333 326 316 308 305 306 307 311 312 312 312 314 316 321 323 327 328 330 330 332 336 335 333 332 330 326 322 316 313 308 307
354 349 342 352 358 357 354 349 351 351 353 355 357 357 355 355 353 353 354 346 331 315 308 305 304 307 311 312 312 313 317 317 315 316 317 319 319 322 328 332 332 332 328 325 324 321 315 311 311
347 346 347 347 345 349 351 341 344 351 355 359 1 3 1 357 353 351 351 349 343 331 318 311 306 304 303 301 303 303 306 309 311 308 306 309 312 317 322 325 328 327 325 323 322 321 317 310 308
348 348 347 344 341 338 346 333 341 351 352 354 353 354 354 353 356 354 349 344 341 335 321 310 306 305 302 303 303 302 301 301 304 306 305 305 304 307 311 316 320 322 321 323 323 320 317 312 304
351 351 350 345 342 342 344 338 342 346 342 345 348 348 348 349 349 347 345 342 336 328 323 315 307 304 304 303 302 301 299 300 299 300 300 302 301 300 303 306 311 312 313 317 319 319 317 313 309
358 355 352 353 351 341 345 342 339 340 340 342 346 347 347 345 344 342 342 339 334 330 323 316 312 308 305 302 302 303 303 301 298 298 297 297 298 297 296 297 299 304 305 308 311 313 314 311 311
352 352 344 346 343 339 349 337 338 347 347 343 343 346 346 346 342 338 334 330 327 323 318 314 311 307 304 301 300 302 302 302 300 301 300 298 297 295 292 291 291 296 298 302 305 307 308 308 307
355 355 348 339 339 336 340 339 346 354 353 352 350 348 345 341 338 334 331 329 326 320 316 313 309 305 304 302 301 302 302 302 300 300 299 297 297 293 293 288 288 291 293 295 301 300 301 304 302
354 352 0 349 345 340 344 347 351 351 350 352 347 343 339 337 335 331 330 327 325 323 320 317 313 308 306 303 303 303 302 301 300 300 300 299 297 294 291 286 284 286 289 292 295 296 295 298 297
6 11 354 352 342 339 344 341 339 344 345 344 343 338 336 335 332 330 329 327 325 323 320 318 315 311 308 304 302 303 302 300 298 297 295 295 296 295 291 287 284 286 288 290 291 292 293 294 294
2 360 359 358 352 344 340 344 352 344 346 344 339 338 335 334 332 330 327 325 323 321 318 317 316 313 310 308 304 302 301 299 298 296 294 291 289 286 285 286 287 286 286 287 287 289 291 291 292
6 360 358 350 348 346 340 338 358 353 346 342 339 338 335 335 333 331 328 326 323 319 317 317 317 317 316 313 309 307 305 304 303 301 298 293 287 282 281 281 282 284 284 284 284 285 286 287 289